Home   Weather   Bangui   Past weeks

Flag for Central African Republic Past Weather in Bangui, Central African Republic — Yesterday and Last 2 Weeks

Now
79 °F

Thunderstorms. Passing clouds.


Feels Like: 81 °F
Forecast: 67 / 93 °F
Wind: 7 mph from South

Location: Bangui Airport

Current Time: Jan 22, 2017 at 7:47:38 pm

Latest Report: Jan 22, 2017 at 6:00 pm


Visibility: 5 mi

Pressure: 29.71 "Hg

Humidity: 74%

Dew Point: 70 °F

Location of BanguiLocation

Past Weather in Bangui — Graph

°F

Bangui Temperature Yesterday

Maximum temperature yesterday: 93 °F (at 2:00 pm)
Minimum temperature yesterday: 72 °F (at 7:00 am)
Average temperature yesterday: 81 °F

High & Low Weather Summary for the Past Weeks

 TemperatureHumidityPressure
High97 °F (Jan 15, 2:00 pm)100% (Jan 9, 1:00 am)29.92 "Hg (Jan 9, 1:00 am)
Low63 °F (Jan 10, 5:00 am)17% (Jan 11, 2:00 pm)29.65 "Hg (Jan 16, 4:00 pm)
Average80 °F71%29.79 "Hg
* Reported Jan 7 6:00 pm — Jan 22 6:00 pm, Bangui, Weather by CustomWeather, © 2017

Note: Actual official high and low records may vary slightly from our data, if they occured in-between our weather recording intervals... More about our weather records

Advertising

Bangui Weather History for the Previous 24 Hours

Scroll right to see more
 ConditionsComfort  
Time TempWeatherWind HumidityBarometerVisibility
6:00 pm
Sun, Jan 22
79 °FThunderstorms. Passing clouds.7 mph74%29.71 "Hg5 mi
5:00 pm82 °FThunderstorms. Scattered clouds.8 mph70%29.71 "Hg5 mi
4:00 pm86 °FThunderstorms. Scattered clouds.16 mph66%29.71 "HgN/A
3:00 pm95 °FScattered clouds.7 mph50%29.71 "HgN/A
2:00 pm97 °FScattered clouds.5 mph47%29.71 "HgN/A
1:00 pm93 °FScattered clouds.6 mph49%29.74 "HgN/A
12:00 pm93 °FScattered clouds.7 mph53%29.80 "HgN/A
11:00 am91 °FScattered clouds.2 mph59%29.83 "HgN/A
10:00 am86 °FPassing clouds.8 mph70%29.83 "HgN/A
9:00 am81 °FPassing clouds.3 mph84%29.86 "HgN/A
8:00 am77 °FFog.No wind94%29.83 "Hg2 mi
7:00 am73 °FFog.No wind100%29.83 "Hg2 mi
6:00 am72 °FFog.No wind100%29.80 "Hg2 mi
5:00 am73 °FPassing clouds.No wind100%29.80 "Hg4 mi
4:00 am73 °FPassing clouds.1 mph100%29.77 "Hg4 mi
3:00 am75 °FPassing clouds.2 mph100%29.77 "Hg4 mi
2:00 am75 °FPassing clouds.No wind100%29.77 "Hg4 mi
1:00 am75 °FPassing clouds.No wind100%29.77 "Hg4 mi
12:00 am77 °FPassing clouds.No wind94%29.77 "Hg4 mi
11:00 pm
Sat, Jan 21
75 °FClear.No wind100%29.80 "Hg10 mi
10:00 pm77 °FClear.No wind100%29.80 "Hg10 mi
9:00 pm79 °FClear.No wind94%29.80 "Hg10 mi
8:00 pm79 °FClear.No wind94%29.77 "Hg10 mi
7:00 pm81 °FClear.No wind89%29.77 "Hg10 mi
Weather by CustomWeather, © 2017

See weather overviewHow to use our weather pages